Time,TemperatureF,DewpointF,PressureIn,WindDirection,WindDirectionDegrees,WindSpeedMPH,WindSpeedGustMPH,Humidity,HourlyPrecipIn,Conditions,Clouds,dailyrainin,SoftwareType,DateUTC
2013-04-11 00:03:00,62.0,-99.9,29.65,East,95,2.0,7.0,-999,-99.99,,,-99.99,,2013-04-11 05:03:00,
2013-04-11 00:13:00,62.0,57.0,29.64,East,95,3.0,6.0,84,-99.99,,,-99.99,,2013-04-11 05:13:00,
2013-04-11 00:22:00,62.0,58.0,29.63,East,95,1.0,5.0,86,-99.99,,,-99.99,,2013-04-11 05:22:00,
2013-04-11 00:32:00,62.0,58.0,29.63,East,95,1.0,5.0,86,-99.99,,,-99.99,,2013-04-11 05:32:00,
2013-04-11 00:42:00,62.0,-99.9,29.64,East,95,0.0,4.0,0,-99.99,,,-99.99,,2013-04-11 05:42:00,
2013-04-11 00:52:00,62.0,-99.9,29.64,East,95,0.0,4.0,0,-99.99,,,-99.99,,2013-04-11 05:52:00,
2013-04-11 01:12:00,62.0,36.0,29.64,South,180,1.0,5.0,37,-99.99,,,-99.99,,2013-04-11 06:12:00,
2013-04-11 01:22:00,62.0,36.0,29.64,South,180,1.0,5.0,37,-99.99,,,-99.99,,2013-04-11 06:22:00,
2013-04-11 01:32:00,62.0,-99.9,29.63,SSE,160,2.0,3.0,0,-99.99,,,-99.99,,2013-04-11 06:32:00,
2013-04-11 01:42:00,62.0,-14.0,29.63,SSE,150,2.0,4.0,4,-99.99,,,-99.99,,2013-04-11 06:42:00,
2013-04-11 01:52:00,62.0,-14.0,29.63,SSE,150,2.0,4.0,4,-99.99,,,-99.99,,2013-04-11 06:52:00,
2013-04-11 02:02:00,62.0,59.0,29.63,West,260,2.0,3.0,88,-99.99,,,-99.99,,2013-04-11 07:02:00,
2013-04-11 02:12:00,62.0,59.0,29.63,South,190,3.0,4.0,88,-99.99,,,-99.99,,2013-04-11 07:12:00,
2013-04-11 02:22:00,62.0,59.0,29.63,South,190,3.0,4.0,88,-99.99,,,-99.99,,2013-04-11 07:22:00,
2013-04-11 02:32:00,62.0,59.0,29.63,WNW,295,6.0,9.0,89,-99.99,,,-99.99,,2013-04-11 07:32:00,
2013-04-11 02:43:00,60.0,-99.9,29.63,NW,305,15.0,23.0,-999,-99.99,,,-99.99,,2013-04-11 07:43:00,
2013-04-11 02:52:00,60.0,-99.9,29.63,NW,305,15.0,23.0,-999,-99.99,,,-99.99,,2013-04-11 07:52:00,
2013-04-11 03:03:00,55.0,50.0,29.63,NW,305,10.0,21.0,85,-99.99,,,-99.99,,2013-04-11 08:03:00,
2013-04-11 03:12:00,53.0,49.0,29.63,NW,310,11.0,20.0,87,-99.99,,,-99.99,,2013-04-11 08:12:00,
2013-04-11 03:42:00,51.0,-39.0,29.63,NW,320,7.0,17.0,0,-99.99,,,-99.99,,2013-04-11 08:42:00,
2013-04-11 03:50:00,51.0,46.0,29.64,WNW,300,7.0,13.0,82,-99.99,,,-99.99,,2013-04-11 08:50:00,
2013-04-11 03:52:00,51.0,-39.0,29.63,NW,320,7.0,17.0,0,-99.99,,,-99.99,,2013-04-11 08:52:00,
2013-04-11 04:02:00,51.0,45.0,29.63,WNW,300,9.0,15.0,79,-99.99,,,-99.99,,2013-04-11 09:02:00,
2013-04-11 04:12:00,51.0,-99.9,29.64,NW,305,11.0,16.0,-999,-99.99,,,-99.99,,2013-04-11 09:12:00,
2013-04-11 04:22:00,51.0,-99.9,29.64,NW,305,11.0,16.0,-999,-99.99,,,-99.99,,2013-04-11 09:22:00,
2013-04-11 04:33:00,51.0,46.0,29.64,WNW,300,7.0,13.0,82,-99.99,,,-99.99,,2013-04-11 09:33:00,
2013-04-11 04:43:00,51.0,46.0,29.64,WNW,300,7.0,13.0,82,-99.99,,,-99.99,,2013-04-11 09:43:00,
2013-04-11 04:50:00,50.0,45.0,29.64,West,280,11.0,17.0,84,-99.99,,,-99.99,,2013-04-11 09:50:00,
2013-04-11 05:02:00,51.0,46.0,29.64,WNW,300,9.0,15.0,84,-99.99,,,-99.99,,2013-04-11 10:02:00,
2013-04-11 05:13:00,50.0,-99.9,29.63,WNW,300,11.0,21.0,0,-99.99,,,-99.99,,2013-04-11 10:13:00,
2013-04-11 05:23:00,50.0,-99.9,29.63,WNW,300,11.0,21.0,0,-99.99,,,-99.99,,2013-04-11 10:23:00,
2013-04-11 05:32:00,50.0,45.0,29.64,West,280,11.0,17.0,84,-99.99,,,-99.99,,2013-04-11 10:32:00,
2013-04-11 05:42:00,50.0,45.0,29.64,West,280,11.0,17.0,84,-99.99,,,-99.99,,2013-04-11 10:42:00,
2013-04-11 06:12:00,49.0,45.0,29.64,WNW,295,9.0,21.0,84,-99.99,,,-99.99,,2013-04-11 11:12:00,
2013-04-11 06:23:00,49.0,45.0,29.64,WNW,290,9.0,18.0,83,-99.99,,,-99.99,,2013-04-11 11:23:00,
2013-04-11 06:32:00,49.0,-99.9,29.64,NW,310,9.0,16.0,-999,-99.99,,,-99.99,,2013-04-11 11:32:00,
2013-04-11 06:42:00,49.0,-40.0,29.64,WNW,290,10.0,20.0,0,-99.99,,,-99.99,,2013-04-11 11:42:00,
2013-04-11 06:52:00,49.0,-40.0,29.64,WNW,290,10.0,20.0,0,-99.99,,,-99.99,,2013-04-11 11:52:00,
2013-04-11 07:02:00,49.0,-99.9,29.64,WNW,295,9.0,19.0,-999,-99.99,,,-99.99,,2013-04-11 12:02:00,
2013-04-11 07:12:00,49.0,43.0,29.65,NW,315,9.0,18.0,82,-99.99,,,-99.99,,2013-04-11 12:12:00,
2013-04-11 07:22:00,49.0,43.0,29.65,NW,315,9.0,18.0,82,-99.99,,,-99.99,,2013-04-11 12:22:00,
2013-04-11 07:32:00,49.0,-99.9,29.67,WNW,285,12.0,19.0,-999,-99.99,,,-99.99,,2013-04-11 12:32:00,
2013-04-11 07:43:00,49.0,-99.9,29.68,WNW,295,9.0,19.0,-999,-99.99,,,-99.99,,2013-04-11 12:43:00,
2013-04-11 07:53:00,49.0,-99.9,29.68,WNW,295,9.0,19.0,-999,-99.99,,,-99.99,,2013-04-11 12:53:00,
2013-04-11 08:03:00,48.0,-99.9,29.69,West,275,16.0,25.0,-999,-99.99,,,-99.99,,2013-04-11 13:03:00,
2013-04-11 08:12:00,48.0,42.0,29.67,WNW,295,13.0,26.0,80,-99.99,,,-99.99,,2013-04-11 13:12:00,
2013-04-11 08:23:00,48.0,42.0,29.67,WNW,295,13.0,26.0,80,-99.99,,,-99.99,,2013-04-11 13:23:00,
2013-04-11 08:32:00,48.0,41.0,29.66,WNW,300,10.0,14.0,78,-99.99,,,-99.99,,2013-04-11 13:32:00,
2013-04-11 08:43:00,48.0,44.0,29.66,WNW,285,12.0,17.0,86,-99.99,,,-99.99,,2013-04-11 13:43:00,
2013-04-11 08:53:00,48.0,44.0,29.66,WNW,285,12.0,17.0,86,-99.99,,,-99.99,,2013-04-11 13:53:00,
2013-04-11 09:02:00,48.0,41.0,29.67,WNW,295,7.0,13.0,76,-99.99,,,-99.99,,2013-04-11 14:02:00,
2013-04-11 09:12:00,47.0,46.0,29.65,NW,325,10.0,16.0,94,-99.99,,,-99.99,,2013-04-11 14:12:00,
2013-04-11 09:20:00,47.0,40.0,29.68,WNW,295,9.0,16.0,76,-99.99,,,-99.99,,2013-04-11 14:20:00,
2013-04-11 09:22:00,47.0,46.0,29.65,NW,325,10.0,16.0,94,-99.99,,,-99.99,,2013-04-11 14:22:00,
2013-04-11 09:33:00,48.0,-99.9,29.67,NW,305,8.0,15.0,-999,-99.99,,,-99.99,,2013-04-11 14:33:00,
2013-04-11 09:42:00,48.0,41.0,29.67,NW,320,6.0,16.0,76,-99.99,,,-99.99,,2013-04-11 14:42:00,
2013-04-11 10:02:00,47.0,40.0,29.68,WNW,295,9.0,16.0,76,-99.99,,,-99.99,,2013-04-11 15:02:00,
2013-04-11 10:12:00,47.0,40.0,29.68,WNW,295,9.0,16.0,76,-99.99,,,-99.99,,2013-04-11 15:12:00,
2013-04-11 11:20:00,48.0,39.0,29.69,West,280,6.0,12.0,71,-99.99,,,-99.99,,2013-04-11 16:20:00,
2013-04-11 12:02:00,48.0,39.0,29.69,West,280,6.0,12.0,71,-99.99,,,-99.99,,2013-04-11 17:02:00,
2013-04-11 12:13:00,48.0,39.0,29.69,West,280,6.0,12.0,71,-99.99,,,-99.99,,2013-04-11 17:13:00,
2013-04-11 12:33:00,48.0,38.0,29.70,West,275,6.0,13.0,69,-99.99,,,-99.99,,2013-04-11 17:33:00,
2013-04-11 12:43:00,48.0,38.0,29.70,WNW,290,9.0,18.0,69,-99.99,,,-99.99,,2013-04-11 17:43:00,
2013-04-11 12:52:00,48.0,38.0,29.70,WNW,290,9.0,18.0,69,-99.99,,,-99.99,,2013-04-11 17:52:00,
2013-04-11 13:00:00,47.0,37.0,29.69,West,275,11.0,19.0,67,-99.99,,,-99.99,,2013-04-11 18:00:00,
2013-04-11 13:03:00,49.0,38.0,29.70,West,280,10.0,17.0,67,-99.99,,,-99.99,,2013-04-11 18:03:00,
2013-04-11 13:13:00,48.0,38.0,29.69,West,280,11.0,17.0,67,-99.99,,,-99.99,,2013-04-11 18:13:00,
2013-04-11 13:23:00,48.0,38.0,29.69,West,280,11.0,17.0,67,-99.99,,,-99.99,,2013-04-11 18:23:00,
2013-04-11 13:33:00,48.0,38.0,29.69,WNW,295,13.0,18.0,68,-99.99,,,-99.99,,2013-04-11 18:33:00,
2013-04-11 13:42:00,47.0,37.0,29.69,West,275,11.0,19.0,67,-99.99,,,-99.99,,2013-04-11 18:42:00,
2013-04-11 13:52:00,47.0,37.0,29.69,West,275,11.0,19.0,67,-99.99,,,-99.99,,2013-04-11 18:52:00,
2013-04-11 14:00:00,47.0,37.0,29.67,West,275,12.0,18.0,66,-99.99,,,-99.99,,2013-04-11 19:00:00,
2013-04-11 14:14:00,47.0,37.0,29.68,West,275,6.0,18.0,66,-99.99,,,-99.99,,2013-04-11 19:14:00,
2013-04-11 14:22:00,47.0,37.0,29.68,West,275,6.0,18.0,66,-99.99,,,-99.99,,2013-04-11 19:22:00,
2013-04-11 14:32:00,48.0,37.0,29.66,WNW,290,10.0,18.0,67,-99.99,,,-99.99,,2013-04-11 19:32:00,
2013-04-11 14:43:00,47.0,37.0,29.67,West,275,12.0,18.0,66,-99.99,,,-99.99,,2013-04-11 19:43:00,
2013-04-11 14:52:00,47.0,37.0,29.67,West,275,12.0,18.0,66,-99.99,,,-99.99,,2013-04-11 19:52:00,
2013-04-11 15:13:00,48.0,36.0,29.68,West,280,9.0,13.0,63,-99.99,,,-99.99,,2013-04-11 20:13:00,
2013-04-11 15:22:00,48.0,36.0,29.68,West,280,9.0,13.0,63,-99.99,,,-99.99,,2013-04-11 20:22:00,
2013-04-11 15:33:00,49.0,36.0,29.66,West,275,10.0,14.0,61,-99.99,,,-99.99,,2013-04-11 20:33:00,
2013-04-11 15:42:00,49.0,35.0,29.66,WNW,295,10.0,19.0,58,-99.99,,,-99.99,,2013-04-11 20:42:00,
2013-04-11 15:52:00,49.0,35.0,29.66,WNW,295,10.0,19.0,58,-99.99,,,-99.99,,2013-04-11 20:52:00,
2013-04-11 16:03:00,50.0,35.0,29.67,West,270,14.0,24.0,56,-99.99,,,-99.99,,2013-04-11 21:03:00,
2013-04-11 16:12:00,49.0,35.0,29.67,NW,320,11.0,19.0,59,-99.99,,,-99.99,,2013-04-11 21:12:00,
2013-04-11 16:22:00,49.0,35.0,29.67,NW,320,11.0,19.0,59,-99.99,,,-99.99,,2013-04-11 21:22:00,
2013-04-11 16:33:00,48.0,35.0,29.67,North,355,9.0,17.0,62,-99.99,,,-99.99,,2013-04-11 21:33:00,
2013-04-11 16:42:00,48.0,35.0,29.66,NW,320,13.0,22.0,61,-99.99,,,-99.99,,2013-04-11 21:42:00,
2013-04-11 16:53:00,48.0,35.0,29.66,NW,320,13.0,22.0,61,-99.99,,,-99.99,,2013-04-11 21:53:00,
2013-04-11 17:03:00,48.0,35.0,29.67,NW,305,10.0,22.0,59,-99.99,,,-99.99,,2013-04-11 22:03:00,
2013-04-11 17:13:00,49.0,34.0,29.66,NNW,340,9.0,20.0,57,-99.99,,,-99.99,,2013-04-11 22:13:00,
2013-04-11 17:23:00,49.0,34.0,29.66,NNW,340,9.0,20.0,57,-99.99,,,-99.99,,2013-04-11 22:23:00,
2013-04-11 17:33:00,47.0,33.0,29.67,West,270,9.0,18.0,58,-99.99,,,-99.99,,2013-04-11 22:33:00,
2013-04-11 17:44:00,47.0,33.0,29.67,WNW,285,11.0,15.0,58,-99.99,,,-99.99,,2013-04-11 22:44:00,
2013-04-11 17:52:00,47.0,33.0,29.67,WNW,285,11.0,15.0,58,-99.99,,,-99.99,,2013-04-11 22:52:00,
2013-04-11 18:03:00,47.0,33.0,29.66,NW,305,9.0,14.0,57,-99.99,,,-99.99,,2013-04-11 23:03:00,
2013-04-11 18:13:00,46.0,32.0,29.67,NW,305,12.0,20.0,56,-99.99,,,-99.99,,2013-04-11 23:13:00,
2013-04-11 18:23:00,46.0,32.0,29.67,NW,305,12.0,20.0,56,-99.99,,,-99.99,,2013-04-11 23:23:00,
2013-04-11 18:32:00,46.0,31.0,29.68,NNW,330,7.0,19.0,56,-99.99,,,-99.99,,2013-04-11 23:32:00,
2013-04-11 18:42:00,46.0,31.0,29.69,West,275,8.0,19.0,56,-99.99,,,-99.99,,2013-04-11 23:42:00,
2013-04-11 18:53:00,46.0,31.0,29.69,West,275,8.0,19.0,56,-99.99,,,-99.99,,2013-04-11 23:53:00,
2013-04-11 19:02:00,45.0,31.0,29.69,WNW,300,9.0,19.0,56,-99.99,,,-99.99,,2013-04-12 00:02:00,
2013-04-11 19:12:00,45.0,29.0,29.68,NW,310,11.0,19.0,54,-99.99,,,-99.99,,2013-04-12 00:12:00,
2013-04-11 19:22:00,45.0,29.0,29.68,NW,310,11.0,19.0,54,-99.99,,,-99.99,,2013-04-12 00:22:00,
2013-04-11 19:32:00,45.0,30.0,29.69,WNW,300,8.0,18.0,55,-99.99,,,-99.99,,2013-04-12 00:32:00,
2013-04-11 19:42:00,45.0,30.0,29.70,NW,310,5.0,14.0,55,-99.99,,,-99.99,,2013-04-12 00:42:00,
2013-04-11 19:52:00,45.0,30.0,29.70,NW,310,5.0,14.0,55,-99.99,,,-99.99,,2013-04-12 00:52:00,
2013-04-11 20:02:00,44.0,29.0,29.70,WNW,295,11.0,18.0,55,-99.99,,,-99.99,,2013-04-12 01:02:00,
2013-04-11 20:12:00,44.0,29.0,29.70,WNW,285,12.0,19.0,56,-99.99,,,-99.99,,2013-04-12 01:12:00,
2013-04-11 20:22:00,44.0,29.0,29.70,WNW,285,12.0,19.0,56,-99.99,,,-99.99,,2013-04-12 01:22:00,
2013-04-11 20:32:00,44.0,29.0,29.69,NW,310,11.0,18.0,57,-99.99,,,-99.99,,2013-04-12 01:32:00,
2013-04-11 20:42:00,44.0,30.0,29.69,NW,320,8.0,19.0,58,-99.99,,,-99.99,,2013-04-12 01:42:00,
2013-04-11 20:52:00,44.0,30.0,29.69,NW,320,8.0,19.0,58,-99.99,,,-99.99,,2013-04-12 01:52:00,
2013-04-11 21:03:00,43.0,29.0,29.70,WNW,300,14.0,20.0,57,-99.99,,,-99.99,,2013-04-12 02:03:00,
2013-04-11 21:12:00,43.0,29.0,29.71,WNW,295,11.0,19.0,56,-99.99,,,-99.99,,2013-04-12 02:12:00,
2013-04-11 21:22:00,43.0,29.0,29.71,WNW,295,11.0,19.0,56,-99.99,,,-99.99,,2013-04-12 02:22:00,
2013-04-11 21:32:00,43.0,27.0,29.71,NW,320,12.0,23.0,53,-99.99,,,-99.99,,2013-04-12 02:32:00,
2013-04-11 21:42:00,43.0,27.0,29.71,NW,310,11.0,18.0,53,-99.99,,,-99.99,,2013-04-12 02:42:00,
2013-04-11 21:52:00,43.0,27.0,29.71,NW,310,11.0,18.0,53,-99.99,,,-99.99,,2013-04-12 02:52:00,
2013-04-11 22:00:00,43.0,27.0,29.72,NW,305,7.0,10.0,53,-99.99,,,-99.99,,2013-04-12 03:00:00,
2013-04-11 22:02:00,43.0,27.0,29.72,NW,325,10.0,17.0,53,-99.99,,,-99.99,,2013-04-12 03:02:00,
2013-04-11 22:12:00,42.0,26.0,29.72,NW,320,11.0,18.0,52,-99.99,,,-99.99,,2013-04-12 03:12:00,
2013-04-11 22:22:00,42.0,26.0,29.72,NW,320,11.0,18.0,52,-99.99,,,-99.99,,2013-04-12 03:22:00,
2013-04-11 22:33:00,43.0,27.0,29.72,West,270,6.0,11.0,53,-99.99,,,-99.99,,2013-04-12 03:33:00,
2013-04-11 22:43:00,43.0,27.0,29.72,NW,305,7.0,10.0,53,-99.99,,,-99.99,,2013-04-12 03:43:00,
2013-04-11 22:52:00,43.0,27.0,29.72,NW,305,7.0,10.0,53,-99.99,,,-99.99,,2013-04-12 03:52:00,
2013-04-11 23:13:00,43.0,27.0,29.72,WNW,290,5.0,10.0,53,-99.99,,,-99.99,,2013-04-12 04:13:00,
2013-04-11 23:23:00,43.0,27.0,29.72,WNW,290,5.0,10.0,53,-99.99,,,-99.99,,2013-04-12 04:23:00,
2013-04-11 23:33:00,42.0,27.0,29.72,WNW,295,6.0,12.0,54,-99.99,,,-99.99,,2013-04-12 04:33:00,
2013-04-11 23:43:00,42.0,27.0,29.72,West,280,6.0,10.0,55,-99.99,,,-99.99,,2013-04-12 04:43:00,
2013-04-11 23:52:00,42.0,27.0,29.72,West,280,6.0,10.0,55,-99.99,,,-99.99,,2013-04-12 04:52:00,